Weather in Grossevichi

Russia / Khabarovsk Krai     47°59′08″N   139°31′55″E
temp.,
°C
wind,
m/s
gust,
m/s
humid.,
%
clouds,
%
prec.,
mm/h
press.,
hPa
HPBL,
m
27 february, sat
sat2701:00−16nw467830 0.0 1029129
04:00−17nw577715 0.0 1030146
07:00−18nw46770 0.0 1032142
10:00−12nw34660 0.0 1031230
13:00−5ssw12570 0.0 1030527
16:00−6s347816 0.0 1028294
19:00−11sw119434 0.0 102822
22:00−10nw119359 0.0 102644
28 february, sun
sun2801:00−9wnw118998 0.0 102243
04:00−9w118699 0.0 101849
07:00−9wsw2385100 0.0 101574
10:00−4sw2670100 0.0 1013336
13:00+2ssw2472100 0.0 1013358
16:00+2sw247592 0.0 1012426
19:00−2wsw477499 0.0 1015186
22:00−5nnw347399 0.0 1017101
1 march, mon
mon101:00−8nw2376100 0.0 101968
04:00−10nw4763100 0.0 1021216
07:00−14nw466134 0.0 1023185
10:00−11nw354817 0.0 1024454
13:00−7w253852 0.0 10251746
16:00−7nnw134764 0.0 10251505
19:00−14nw5115874 0.0 1028538
22:00−17wnw366641 0.0 1030335
2 march, tue
tue201:00−19nw35730 0.0 1030156
04:00−20wnw34760 0.0 1030121
07:00−20nw357460 0.0 1031133
10:00−16nnw355764 0.0 1029299
13:00−12nnw454592 0.0 1027907
16:00−10nne354579 0.0 10261382
19:00−15ene35811 0.0 1027188
22:00−17nw22833 0.0 1029109
3 march, wed
wed301:00−19nw35760 0.0 1028133
04:00−20nw35740 0.0 1029136
07:00−21nw35750 0.0 1029122
10:00−15wnw23580 0.0 1028265
13:00−10s33580 0.0 1025513
16:00−9ssw586546 0.0 1023605
19:00−12sw248819 0.0 1021120
22:00−13wnw228726 0.0 102044